Regional Weather Roundup
Issued by NWS

Home | Current Version | Previous Version | Graphics & Text | Print | Product List | Glossary On
Versions: 1 2 3 4 5 6 7 8 9 10 11 12 13 14 15 16 17 18 19 20 21 22 23 24 25 26 27 28 29 30 31 32 33 34 35 36 37 38 39 40 41 42 43 44 45 46 47 48 49 50
000
ASUS44 KMEG 041310
RWRTN
TENNESSEE HOURLY STATE WEATHER ROUNDUP
NATIONAL WEATHER SERVICE MEMPHIS TN
700 AM CST SUN DEC 04 2016

TNZ002-004-019-021-049-052-054-088>092-041400-
WEST TENNESSEE

CITY           SKY/WX    TMP DP  RH WIND       PRES   REMARKS
MEMPHIS INTL   CLOUDY    45  43  93 E3        29.98S
NWS MEMPHIS      N/A     42 N/A N/A MISG        N/A
JACKSON        LGT RAIN  43  32  65 E7        29.99F
DYERSBURG      CLOUDY   N/A N/A N/A SE5       29.99S
UNION CITY     CLOUDY    39  39 100 E7        29.99F WCI  34
PARIS          CLOUDY    37  37 100 E7        30.02F WCI  32
HUNTINGDON     CLOUDY    41  41 100 E8        30.00F
LEXINGTON      CLOUDY    41  41 100 E7        30.00F
$$

TNZ008-025-027-028-033-062-065-066-041400-
NORTH MIDDLE TENNESSEE

CITY           SKY/WX    TMP DP  RH WIND       PRES   REMARKS
NASHVILLE      CLOUDY    42  40  92 SE10      30.07F
PORTLAND       CLOUDY    41  41 100 E6        30.06F FOG
CLARKSVILLE    CLOUDY    40  38  93 E8        30.07F WCI  34
SMYRNA         CLOUDY    42  41  96 E6        30.10F
CROSSVILLE     LGT RAIN  38  37  97 E6        30.11R WCI  33
$$

TNZ061-075-076-078-094-096-097-041400-
SOUTH MIDDLE TENNESSEE

CITY           SKY/WX    TMP DP  RH WIND       PRES   REMARKS
FAYETTEVILLE   CLOUDY    46  43  87 SE23G29   30.05R FOG
TULLAHOMA      CLOUDY    43  41  93 CALM      30.08R
WINCHESTER     CLOUDY    45  43  93 SE15      30.06R
MCMINNVILLE    CLOUDY    45  45 100 N5        30.09R
COLUMBIA         N/A    N/A N/A N/A E7        30.04F
SHELBYVILLE    CLOUDY    45  45 100 NE3       30.10R
$$

TNZ017-018-042-046-047-041400-
NORTHEAST TENNESSEE

CITY           SKY/WX    TMP DP  RH WIND       PRES   REMARKS
TRI CITIES     LGT RAIN  37  35  92 E3        30.20S FOG
ELIZABETHTON   LGT RAIN  41  39  93 CALM      30.19R
$$

TNZ012-013-036-069-073-074-041400-
CENTRAL EAST TENNESSEE

CITY           SKY/WX    TMP DP  RH WIND       PRES   REMARKS
KNOXVILLE      RAIN      39  37  92 E5        30.13F VSB 1
OAK RIDGE      LGT RAIN  40  38  93 VRB3      30.17F FOG
DOWNTOWN KNOXV CLOUDY    39  39 100 CALM      30.16F FOG
GATLINBURG     MOCLDY    37  36  93 CALM      30.14F
MORRISTOWN     CLOUDY    37  37 100 NE6       30.14F FOG     WCI  33
JACKSBORO      CLOUDY    37  37 100 CALM      30.19F FOG
$$

TNZ083-085-099-041400-
SOUTHEAST TENNESSEE

CITY           SKY/WX    TMP DP  RH WIND       PRES   REMARKS
CHATTANOOGA    RAIN      42  40  92 N5        30.14F FOG
$$

SKY/WX REPORTED AS FAIR MEANS FEW OR NO CLOUDS BELOW
12 THOUSAND FEET.




USA.gov is the U.S. government's official web portal to all federal, state and local government web resources and services.